THORAD AGENA D DEB, 42494

Orbit data source: Space-Track

THORAD AGENA D DEB, 42494 is space debris in SSO originally from a launch on Wed, 08 Apr 1970 UTC launched from the Air Force Western Test Range (AFWTR). Debris objects in space refer to the collection of defunct objects orbiting the Earth. Examples of debris include non-operational satellites, rocket bodies, and fragments generated from explosions, collisions, or faulty payload assembly.

Loading next visibility...
Identifier
42494, 1970-025QY
Orbit
SSO
Country
Flag of USUS
Related business
Manufacturer
Unknown
Mission
Spacecraft
Bus & Motor
Unknown
Mass
Unknown
Launch date (UTC)
1970-04-08 (55 years ago)
Launch vehicle
Unknown
Launch site
Air Force Western Test Range (AFWTR)
Object type
Payload
Rocket body
Debris
Shape & HBR
Unknown
Radar Cross Section
Small (<0.1 m²)

Expand to show TLE details & history
Last TLE update: 1 week ago

TLE from 1 week ago
0 THORAD AGENA D DEB
1 42494U 70025QY  25249.99257083  .00000542  00000-0  76100-3 0  9990
2 42494  99.7198 327.8861 0099613 161.1758 199.3107 13.60009543572959
Epoch: 2025-09-06T23:49Z
TLE epoch observation values (Epoch: 2025-09-06T23:49:18.119Z)
Latitude
0.00003°
Longitude
-15.75784°
Altitude
1,108.245 km
Speed
7.264 km/s
True Right ascension
21h 51m 32s
True Declination
0° 00' 00"
Sunlit
Object was in full shadow at epoch
Visualization orbit readout
Latitude
Unknown
Longitude
Unknown
Altitude
Unknown
Speed
Unknown
Apparent Right ascension
Unknown
Apparent Declination
Unknown
Sunlit
N/A
Visualization observer readout
Local Sidereal Time
10:27:00
Azimuth
Unknown
Elevation
Unknown
Doppler factor
Unknown
Orbital elements
Apogee altitude
1,106.77 km
Perigee altitude
959.122 km
Semi-major axis
7,411.083 km
Eccentricity
0.00996
Inclination
99.7198°
RAAN
327.8861°
Arg. of periapsis
161.1758°
True anomaly
198.93761°
Mean anomaly
199.3107°
Eccentric anomaly
199.12372°
Mean motion
3.40189 °/min
Orbital period
105.82 mins
BSTAR
0.000761
Loading maneuver chart data...
Computing Atmospheric mass density...

Documentation

Showing up to 5 results
|